Flag for Switzerland Weather past 2 weeks in Versoix, Geneva, Switzerland

Now
59 °F

Low clouds.


Feels Like: 59 °F
Forecast: 58 / 70 °F
Wind: 2 mph from West

Location: Geneve-Cointrin

Current Time: Jul 29, 2014 at 11:48:11 PM

Latest Report: Jul 29, 2014 at 11:00 PM


Visibility: 16 mi

Pressure: 29.89 "Hg

Humidity: 92%

Dew point: 57 °F

Location of VersoixLocation

Historic Weather in Versoix — Graph

°F

Versoix temperature yesterday

Maximum temperature yesterday: 75 °F (at 1:00 PM)
Minimum temperature yesterday: 61 °F (at 11:00 PM)
Average temperature yesterday: 66 °F

Past Weeks' High & Low Weather Summary

 TemperatureHumidityPressure
High87 °F (Jul 18, 6:00 PM)96% (Jul 27, 7:00 AM)30.19 "Hg (Jul 27, 7:00 AM)
Low55 °F (Jul 27, 5:00 AM)25% (Jul 18, 6:00 PM)29.79 "Hg (Jul 29, 1:00 PM)
Average67 °F76%29.97 "Hg
* Reported Jul 14 10:00 PM — Jul 29 10:00 PM, Versoix, Weather by CustomWeather, © 2014

Note: Actual official high and low records may vary slightly from our data, if they occured in-between our weather recording intervals... More about our weather records

Advertising

Versoix weather history for previous 24 hours

 ConditionsComfort  
Time TempWeatherWind HumidityBarometerVisibility
10:00 PM
Jul 29
60 °FCool.3 mph91%29.88 "HgN/A
9:00 PM60 °FCool.3 mph93%29.88 "HgN/A
8:00 PM60 °FDrizzle. Low clouds.5 mph94%29.87 "Hg2 mi
7:00 PM61 °FCool.6 mph93%29.85 "HgN/A
6:00 PM62 °FCool.6 mph84%29.83 "HgN/A
5:00 PM63 °FSprinkles. Overcast.2 mph78%29.83 "Hg6 mi
4:00 PM63 °FMild.3 mph82%29.83 "HgN/A
3:00 PM62 °FCool.8 mph89%29.82 "HgN/A
2:00 PM65 °FMild.7 mph78%29.80 "HgN/A
1:00 PM66 °FMild.3 mph66%29.79 "HgN/A
12:00 PM64 °FMild.5 mph79%29.80 "HgN/A
11:00 AM63 °FLow clouds.7 mph82%29.82 "Hg25 mi
10:00 AM62 °FCool.3 mph90%29.83 "HgN/A
9:00 AM60 °FCool.2 mph90%29.83 "HgN/A
8:00 AM59 °FLow clouds.2 mph90%29.83 "Hg22 mi
7:00 AM59 °FCool.2 mph92%29.81 "HgN/A
6:00 AM59 °FCool.3 mph92%29.83 "HgN/A
5:00 AM59 °FLight rain. Low clouds.3 mph93%29.84 "Hg3 mi
4:00 AM60 °FCool.2 mph93%29.84 "HgN/A
3:00 AM60 °FCool.3 mph90%29.85 "HgN/A
2:00 AM60 °FLow clouds.3 mph88%29.87 "Hg12 mi
1:00 AM60 °FCool.2 mph93%29.88 "HgN/A
12:00 AM60 °FCool.3 mph91%29.88 "HgN/A
11:00 PM
Jul 28
61 °FPassing clouds.2 mph93%29.90 "Hg25 mi
Weather by CustomWeather, © 2014

See weather overviewHow to use our weather pages